Location: Newark
(31.0436°N, 112.2008°E)
Time: 19:50:07
(UTC+00:00)

LightSail 2 - Pass Details

Date: 29 January 2020
Orbit: 701 x 721 km, 24.0° (Epoch: 16 February)

Event Time Altitude Azimuth Distance (km) Brightness Sun altitude
Rises 12:01:53 0° 252° (WSW) 3,075 9.7 -25.5°
Drops below altitude 10° 12:07:27 10° 204° (SSW) 2,163 8.0 -26.7°
Maximum altitude 12:07:28 10° 203° (SSW) 2,163 8.0 -26.7°
Enters shadow 12:10:20 - 174° (S) 2,440 7.9 -27.3°
